Погода в Лазо

Россия / Приморский край     43°22′27″N   133°53′59″E
темп.,
°C
ветер,
м/с
пор.,
м/с
влажн.,
%
обл.,
%
осадки,
мм/ч
давл.,
гПа
погр.,
м
13 мая, чт
чт1301:00+5ю1399100 0.1 1017105
04:00+5юз1299100 0.1 101674
07:00+6зюз2295100 0.0 1016214
10:00+12юз2359100 0.0 1014678
13:00+17юз3445100 0.0 10121100
16:00+18зюз3537100 0.0 10111810
19:00+15юз2464100 0.0 1011112
22:00+9з21855 0.0 101314
14 мая, пт
пт1401:00+7зсз218772 0.0 101415
04:00+7зсз218492 0.0 101414
07:00+9сз127622 0.0 101446
10:00+19ссз11400 0.0 1014729
13:00+23ю132751 0.0 10122707
16:00+21ю453677 0.0 10111770
19:00+17ююз3560100 0.0 1012220
22:00+11юз2378100 0.0 101450
15 мая, сб
сб1501:00+11юз2368100 0.0 101473
04:00+11ююз2481100 0.0 1012118
07:00+11юз2692100 0.0 1012324
10:00+15юз3676100 0.0 1011709
13:00+19юз476322 0.0 1009903
16:00+21юз4658100 0.0 1007970
19:00+18юз3674100 0.0 1006533
22:00+13зюз2296100 0.0 100857
16 мая, вс
вс1601:00+13ссз2392100 0.0 1008150
04:00+11ссз2491100 0.1 1007186
07:00+11ссз1387100 0.0 1008114
10:00+13ссз1358100 0.0 1008271
13:00+20с3531100 0.0 10061869
16:00+20ссз4630100 0.0 10051990
19:00+17ссз3642100 0.0 1007310
22:00+10зсз216063 0.0 100912
17 мая, пн
пн1701:00+8зсз21661 0.0 100913
04:00+7з216722 0.0 100914
07:00+10сз116784 0.0 100943
10:00+18с253441 0.0 10081374
13:00+22с242381 0.0 10072069
16:00+22ссз2323100 0.0 10062268
19:00+17ю1253100 0.0 100752
22:00+11зюз1157100 0.0 100912